This is the latest recevied weather packets stored in our database for station/object SR4DIG-13. If no packets are shown the sender has not sent any weather packets the latest 10 day(s).
| Time | Temp. | Humidity | Pressure | Rain* | Wind** | Luminosity | Snow |
|---|---|---|---|---|---|---|---|
| 1777895182 | 27.78° C | 24% | 1011 hPa | 0 mm | - | - | - |
| 1777894881 | 27.78° C | 24% | 1011 hPa | 0 mm | - | - | - |
| 1777894580 | 27.78° C | 24% | 1011.1 hPa | 0 mm | - | - | - |
| 1777894279 | 27.78° C | 24% | 1011.1 hPa | 0 mm | - | - | - |
| 1777893946 | 27.78° C | 25% | 1011 hPa | 0 mm | - | - | - |
| 1777893645 | 27.78° C | 25% | 1011 hPa | 0 mm | - | - | - |
| 1777893344 | 27.78° C | 24% | 1011.1 hPa | 0 mm | - | - | - |
| 1777893043 | 28.33° C | 23% | 1011.3 hPa | 0 mm | - | - | - |
| 1777891801 | 27.78° C | 24% | 1011.5 hPa | 0 mm | - | - | - |
| 1777891500 | 27.78° C | 24% | 1011.5 hPa | 0 mm | - | - | - |
| 1777889884 | 26.67° C | 24% | 1011.7 hPa | 0 mm | - | - | - |
| 1777889582 | 26.67° C | 24% | 1011.8 hPa | 0 mm | - | - | - |
| 1777889282 | 26.67° C | 23% | 1011.8 hPa | 0 mm | - | - | - |
| 1777888773 | 26.67° C | 23% | 1011.8 hPa | 0 mm | - | - | - |
| 1777888472 | 26.67° C | 24% | 1012 hPa | 0 mm | - | - | - |
| 1777887569 | 26.11° C | 24% | 1012 hPa | 0 mm | - | - | - |
| 1777887268 | 26.67° C | 24% | 1012 hPa | 0 mm | - | - | - |
| 1777886968 | 26.67° C | 24% | 1012 hPa | 0 mm | - | - | - |
| 1777886667 | 26.11° C | 26% | 1011.9 hPa | 0 mm | - | - | - |
| 1777886366 | 26.11° C | 26% | 1011.9 hPa | 0 mm | - | - | - |
| 1777886065 | 25.56° C | 27% | 1012 hPa | 0 mm | - | - | - |
| 1777885764 | 25.56° C | 26% | 1012 hPa | 0 mm | - | - | - |
| 1777885113 | 25° C | 27% | 1012 hPa | 0 mm | - | - | - |
| 1777883909 | 25° C | 28% | 1011.9 hPa | 0 mm | - | - | - |
| 1777883609 | 25° C | 28% | 1012 hPa | 0 mm | - | - | - |
* Rain since midnight (hover to see other rain measurements)
** Current wind speed in m/s (hover to see current wind gust speed)